PDT,Max TemperatureF,Mean TemperatureF,Min TemperatureF,Max Dew PointF,MeanDew PointF,Min DewpointF,Max Humidity, Mean Humidity, Min Humidity, Max Sea Level PressureIn, Mean Sea Level PressureIn, Min Sea Level PressureIn, Max VisibilityMiles, Mean VisibilityMiles, Min VisibilityMiles, Max Wind SpeedMPH, Mean Wind SpeedMPH, Max Gust SpeedMPH,PrecipitationIn, CloudCover, Events, WindDirDegrees
2012-10-1,72,59,46,55,50,45,100,81,44,30.19,30.13,30.08,10,9,3,24,10,30,0.00,0,,355
2012-10-2,57,52,46,54,49,43,100,83,67,30.14,30.12,30.08,10,10,5,27,17,32,0.00,1,,358
2012-10-3,68,56,43,48,44,39,100,74,35,30.12,30.04,29.98,10,10,4,21,6,26,0.00,0,,360
2012-10-4,66,54,41,50,44,34,100,79,34,30.15,30.09,30.01,10,10,5,13,5,,0.00,1,,309
2012-10-5,63,55,46,52,49,46,100,85,60,30.17,30.15,30.12,10,10,10,8,5,,0.00,4,,121
2012-10-6,63,53,43,52,46,43,100,84,48,30.15,30.08,30.03,10,10,10,14,6,,0.00,0,,151
2012-10-7,59,50,41,50,46,41,100,92,67,30.03,30.00,29.97,10,8,0,10,6,,0.00,3,,199
2012-10-8,63,56,48,52,49,46,100,88,72,30.09,30.04,30.01,10,10,5,14,6,,0.00,6,,182
2012-10-9,63,55,46,52,48,45,100,83,60,30.10,30.07,30.03,10,10,9,16,7,20,0.00,2,,41
2012-10-10,57,51,45,50,48,43,100,91,77,30.06,30.02,29.96,10,9,2,17,8,24,0.00,5,,6
2012-10-11,55,51,46,48,47,43,100,90,77,30.00,29.95,29.86,10,10,9,8,4,,0.00,7,,162
2012-10-12,63,56,48,55,50,48,100,86,64,30.13,30.01,29.94,10,9,3,12,7,22,0.43,8,,174
2012-10-13,64,61,57,59,57,55,100,91,84,30.28,30.23,30.14,10,10,9,15,8,20,0.00,8,,202
2012-10-14,66,62,57,61,58,55,100,91,78,30.20,30.12,30.04,10,10,1,13,8,27,0.11,8,,179
2012-10-15,70,66,61,64,62,59,100,97,87,30.04,29.95,29.84,10,7,2,18,9,30,1.09,8,,186
2012-10-16,63,55,46,63,52,45,100,87,56,30.30,30.16,29.88,10,8,2,18,6,24,0.09,4,,327
2012-10-17,66,55,43,52,47,41,100,85,42,30.30,30.20,30.13,10,9,3,9,5,9,0.00,0,,12
2012-10-18,66,55,43,54,50,43,100,87,58,30.14,30.01,29.95,10,10,7,10,5,,0.00,0,,267
2012-10-19,61,58,54,57,54,52,100,94,75,30.03,29.98,29.94,10,9,2,16,8,25,0.15,7,,190
2012-10-20,59,53,46,54,48,43,100,87,53,30.07,30.02,29.98,10,8,0,10,5,17,0.02,5,,204
2012-10-21,54,50,46,50,47,45,100,92,83,29.98,29.87,29.71,10,10,4,12,8,16,0.34,7,,144
2012-10-22,57,50,43,48,45,41,100,90,66,29.77,29.68,29.61,10,10,5,14,9,20,0.50,6,,169
2012-10-23,52,48,43,46,43,41,100,93,80,29.92,29.87,29.78,10,10,6,16,10,28,0.84,6,,155
2012-10-24,57,50,43,48,45,41,100,88,66,30.22,30.01,29.88,10,10,5,13,9,22,0.69,5,,161
2012-10-25,61,50,39,50,46,39,100,88,62,30.39,30.32,30.23,10,9,3,9,6,,0.02,2,,134
2012-10-26,63,56,48,55,51,46,100,90,72,30.29,30.22,30.18,10,10,9,14,7,20,0.00,8,,184
2012-10-27,63,59,54,61,57,52,100,97,93,30.18,30.11,30.06,10,8,2,12,8,17,0.09,8,,172
2012-10-28,63,62,61,63,61,59,100,97,93,30.06,30.00,29.96,10,7,2,10,8,16,0.50,8,,185
2012-10-29,63,60,57,63,60,57,100,96,84,30.12,30.05,29.98,10,8,1,16,7,25,0.35,8,,208
2012-10-30,64,60,55,63,58,55,100,95,87,30.01,29.89,29.79,10,8,0,20,9,30,0.03,7,,188
2012-10-31,61,58,55,57,55,54,100,95,84,29.80,29.72,29.66,10,9,2,22,8,35,0.84,8,,162